Вернуться в каталог

GORIZONT 32

АктивенСвязьGEO
NORAD 23880·PAYLOAD·🇷🇺 Russia

Запущен May 25, 1996 с Baikonur Cosmodrome

Loading…

TLE

СвежийSource: Space-Track

Эпоха: Sep 13, 2026, 16:09 UTC

1 23880U 96034A   26256.67326091 -.00000379  00000-0  00000-0 0  9998
2 23880  14.3786 354.3002 0008340 358.5293   7.2504  1.00180895110922

Отслеживайте GORIZONT 32 в реальном времени с AllMySat

Download on the App Store